User: anonymous   Login
Location: *
(44.1392°N, 4.8079°E)
Time: 15:25:22
(UTC+00:00)
Language:

ATLAS 5 CENTAUR R/B - Orbit

View from above orbital plane
View from above orbital plane
View from above satellite
View from above satellite

Ground track
Ground track

The orbit data is extracted from the following two-line orbital elements,

1 31702U 07027B   21263.13320054 0.00000200  00000-0  35231-4 0    04
2 31702  63.3584   0.8341 0443000  20.3419 339.6581 14.19004251    02
Epoch (UTC): 20 September 2021 03:11:48
Eccentricity: 0.0443000
inclination: 63.3584°
perigee height: 509 km
apogee height: 1148 km
right ascension of ascending node: 0.8341°
argument of perigee: 20.3419°
revolutions per day: 14.19004251
mean anomaly at epoch: 339.6581°
orbit number at epoch: 0

The dashed part of the orbit path shows where the satellite is in the earth's shadow,  

DLR